DW2913 Weather Reports


Display with metric or nautical units.
time (UTC)temp
F
wind
direction
speed
MPH
gust
MPH
rain 1hr
in
rain 24hr
in
rain mn
in
humidity
%
barometer
mb
20181210081711 35 263 8.0 14.0 0.01 0.18 0.06 83 1020.9
20181210081211 35 272 7.0 12.0 0.01 0.18 0.06 83 1021.0
20181210080711 35 278 7.0 12.0 0.01 0.18 0.06 83 1021.0
20181210080212 35 286 7.0 12.0 0.01 0.18 0.06 83 1020.9
20181210075710 35 274 6.0 12.0 0.01 0.18 0.06 84 1020.7
20181210075211 35 280 7.0 18.0 0.01 0.18 0.06 84 1020.8
20181210074710 35 259 7.0 18.0 0.01 0.18 0.06 84 1020.7
20181210074214 35 270 7.0 20.0 0.01 0.18 0.06 84 1020.6
20181210073711 35 269 9.0 20.0 0.01 0.18 0.06 85 1020.5
20181210073211 35 265 9.0 21.0 0.01 0.18 0.06 85 1020.5
20181210072710 36 252 10.0 21.0 0.01 0.18 0.05 85 1020.5
20181210072212 36 277 11.0 16.0 0.00 0.17 0.05 85 1020.6
20181210071710 36 282 10.0 16.0 0.00 0.17 0.05 85 1020.2
20181210071211 36 275 8.0 16.0 0.00 0.17 0.05 85 1020.1
20181210070713 36 263 8.0 16.0 0.00 0.17 0.05 85 1019.9
20181210070213 36 259 10.0 19.0 0.00 0.17 0.05 86 1019.8
20181210065709 37 271 10.0 19.0 0.00 0.17 0.05 85 1019.8
20181210065212 37 267 10.0 20.0 0.01 0.17 0.05 85 1019.7
20181210064711 37 254 10.0 20.0 0.01 0.17 0.05 85 1019.6
20181210064212 37 264 10.0 21.0 0.01 0.18 0.05 85 1019.6
20181210063711 37 281 10.0 21.0 0.01 0.18 0.05 85 1019.5
20181210063211 37 252 11.0 19.0 0.01 0.19 0.05 85 1019.3
20181210062710 37 263 10.0 19.0 0.01 0.19 0.05 85 1019.3
20181210062212 37 264 10.0 18.0 0.01 0.20 0.05 85 1019.2
20181210061711 37 263 9.0 19.0 0.01 0.22 0.05 85 1019.2
20181210061211 37 236 10.0 21.0 0.01 0.24 0.05 85 1019.2
20181210060711 37 273 11.0 21.0 0.01 0.24 0.05 85 1019.1
20181210060212 37 255 12.0 20.0 0.00 0.29 0.05 85 1019.0
20181210055709 37 279 12.0 20.0 0.00 0.29 0.04 85 1019.0
20181210055213 37 264 11.0 16.0 0.00 0.32 0.04 85 1019.0
20181210054715 37 241 10.0 16.0 0.00 0.32 0.04 85 1019.0
20181210054214 37 280 9.0 20.0 0.00 0.33 0.04 85 1018.9
20181210053714 37 275 9.0 20.0 0.00 0.33 0.04 85 1018.9
20181210053212 37 249 9.0 21.0 0.00 0.33 0.04 85 1018.6
20181210052714 37 261 11.0 21.0 0.00 0.33 0.04 85 1018.7
20181210052214 37 240 12.0 21.0 0.00 0.33 0.04 85 1018.7
20181210051711 37 254 11.0 21.0 0.00 0.33 0.04 84 1018.6
20181210051211 37 261 10.0 24.0 0.00 0.34 0.04 84 1018.6
20181210050712 37 246 11.0 24.0 0.00 0.34 0.04 84 1018.6
20181210050212 37 273 11.0 24.0 0.00 0.34 0.04 84 1018.6
20181210045710 38 270 11.0 24.0 0.00 0.34 0.04 85 1018.6
20181210045211 38 262 11.0 24.0 0.00 0.36 0.04 85 1018.6
20181210044711 38 233 12.0 24.0 0.00 0.36 0.04 85 1018.5
20181210044212 38 259 12.0 21.0 0.00 0.36 0.04 85 1018.5
20181210043709 38 255 12.0 21.0 0.00 0.36 0.04 85 1018.5
20181210043211 38 262 12.0 23.0 0.00 0.36 0.04 85 1018.5
20181210042710 38 279 12.0 23.0 0.00 0.36 0.04 85 1018.2
20181210042212 38 254 12.0 23.0 0.00 0.36 0.04 85 1018.2
20181210041712 38 261 10.0 22.0 0.00 0.36 0.04 85 1018.3
20181210041211 38 264 10.0 17.0 0.00 0.36 0.04 85 1018.4
20181210040710 37 298 10.0 17.0 0.00 0.36 0.04 85 1018.3
20181210040213 37 259 9.0 17.0 0.00 0.36 0.04 85 1018.2
20181210035710 37 245 10.0 17.0 0.00 0.36 0.04 85 1018.2
20181210035211 37 248 10.0 21.0 0.00 0.36 0.04 85 1018.1
20181210034708 37 276 10.0 21.0 0.00 0.36 0.04 85 1018.1
20181210034210 37 252 10.0 21.0 0.00 0.36 0.04 85 1018.1
20181210033707 37 242 11.0 25.0 0.00 0.36 0.04 85 1018.0
20181210033209 37 252 12.0 25.0 0.00 0.36 0.04 85 1017.9
20181210032708 38 286 12.0 25.0 0.00 0.36 0.04 85 1017.9
20181210032210 38 244 10.0 19.0 0.00 0.36 0.04 85 1017.9
20181210031708 38 281 8.0 17.0 0.00 0.36 0.04 84 1017.9
20181210031210 38 284 7.0 15.0 0.00 0.36 0.04 85 1017.9
20181210030709 38 234 8.0 15.0 0.00 0.36 0.04 85 1017.9
20181210030210 38 245 8.0 19.0 0.00 0.36 0.04 85 1017.9
20181210025707 38 250 9.0 19.0 0.00 0.36 0.04 85 1017.8
20181210025208 38 261 8.0 17.0 0.00 0.36 0.04 85 1017.6
20181210024708 38 250 8.0 19.0 0.00 0.36 0.04 85 1017.6
20181210024211 38 250 9.0 19.0 0.00 0.36 0.04 85 1017.8
20181210023707 38 269 9.0 19.0 0.00 0.37 0.04 85 1017.7
20181210023210 38 271 9.0 19.0 0.00 0.37 0.04 85 1017.6
20181210022707 38 269 9.0 19.0 0.00 0.38 0.04 85 1017.6
20181210022211 38 265 10.0 19.0 0.00 0.38 0.04 85 1017.4
20181210021707 38 276 10.0 18.0 0.00 0.39 0.04 85 1017.4
20181210021209 38 268 10.0 20.0 0.00 0.39 0.04 85 1017.2
20181210020708 38 272 9.0 20.0 0.00 0.39 0.04 85 1017.2
20181210020210 38 247 10.0 23.0 0.00 0.39 0.04 85 1017.2
20181210015707 39 282 12.0 23.0 0.00 0.39 0.04 85 1017.2
20181210015208 39 281 12.0 22.0 0.01 0.39 0.04 85 1017.2
20181210014707 39 259 9.0 18.0 0.01 0.39 0.04 85 1017.2
20181210014210 39 273 9.0 18.0 0.02 0.39 0.04 85 1017.1
20181210013708 39 277 11.0 18.0 0.02 0.39 0.04 85 1017.0
20181210013209 39 279 10.0 18.0 0.02 0.39 0.04 84 1016.7
20181210012708 39 289 9.0 23.0 0.02 0.39 0.04 84 1016.7
20181210012210 39 268 8.0 23.0 0.02 0.39 0.04 84 1016.6
20181210011707 39 271 10.0 23.0 0.02 0.39 0.04 84 1016.4
20181210011209 39 277 11.0 20.0 0.04 0.39 0.04 84 1016.3
20181210010709 39 269 10.0 19.0 0.04 0.39 0.04 84 1016.3
20181210010211 39 264 9.0 19.0 0.04 0.39 0.04 84 1016.1
20181210005707 39 262 10.0 19.0 0.04 0.39 0.04 84 1016.1
20181210005209 39 268 10.0 18.0 0.03 0.38 0.03 84 1016.0
20181210004707 39 273 9.0 15.0 0.02 0.37 0.02 84 1015.9
20181210004211 39 277 8.0 17.0 0.02 0.37 0.02 84 1016.0
20181210003708 39 257 8.0 17.0 0.02 0.37 0.02 84 1015.9
20181210003210 39 273 10.0 21.0 0.02 0.37 0.02 85 1015.7
20181210002707 39 260 11.0 24.0 0.02 0.37 0.02 85 1015.5
20181210002211 39 286 13.0 24.0 0.02 0.37 0.02 85 1015.5
20181210001707 40 274 12.0 19.0 0.01 0.35 0.01 85 1015.5
20181210001209 40 281 10.0 19.0 0.00 0.35 0.00 85 1015.4
20181210000708 40 283 10.0 19.0 0.00 0.35 0.00 85 1015.4
20181210000210 40 270 10.0 19.0 0.00 0.35 0.00 85 1015.2
20181209235708 40 234 10.0 19.0 0.00 0.35 0.00 85 1015.1
20181209235209 40 288 11.0 19.0 0.00 0.35 0.00 85 1014.9
20181209234706 40 286 11.0 18.0 0.00 0.35 0.00 85 1014.9
20181209234211 40 263 10.0 18.0 0.00 0.35 0.00 85 1014.8
20181209233710 40 273 9.0 19.0 0.00 0.35 0.00 85 1014.8
20181209233211 40 266 11.0 20.0 0.00 0.35 0.00 85 1014.6
20181209232710 40 273 11.0 20.0 0.00 0.35 0.00 85 1014.6
20181209232212 40 270 11.0 20.0 0.00 0.35 0.00 85 1014.5
20181209231710 40 268 10.0 17.0 0.00 0.35 0.00 85 1014.4
20181209231209 40 257 9.0 17.0 0.00 0.35 0.00 85 1014.4
20181209230708 40 279 10.0 19.0 0.00 0.35 0.00 85 1014.3
20181209230213 40 269 10.0 19.0 0.00 0.35 0.35 85 1014.2
20181209225707 40 284 10.0 20.0 0.00 0.35 0.35 85 1014.3
20181209225210 40 272 11.0 20.0 0.00 0.35 0.35 85 1014.1
20181209224708 40 279 10.0 20.0 0.00 0.35 0.35 85 1014.1
20181209224211 40 277 9.0 15.0 0.00 0.35 0.35 85 1014.0
20181209223708 40 265 9.0 14.0 0.00 0.35 0.35 85 1014.0
20181209223210 40 274 8.0 14.0 0.00 0.35 0.35 85 1013.9
20181209222708 40 262 7.0 16.0 0.01 0.35 0.35 85 1013.7
20181209222211 40 257 8.0 16.0 0.01 0.35 0.35 85 1013.6
20181209221707 40 272 9.0 16.0 0.01 0.35 0.35 85 1013.4
20181209221209 40 269 8.0 16.0 0.01 0.35 0.35 85 1013.2
20181209220707 40 276 8.0 15.0 0.01 0.35 0.35 85 1013.2
20181209220211 40 285 9.0 15.0 0.01 0.35 0.35 85 1013.2
20181209215708 40 291 9.0 19.0 0.01 0.35 0.35 85 1013.1
20181209215210 40 285 10.0 19.0 0.01 0.35 0.35 85 1013.1
20181209214709 40 291 11.0 19.0 0.02 0.35 0.35 85 1012.9
20181209214210 40 272 11.0 20.0 0.02 0.35 0.35 85 1012.9
20181209213708 40 284 12.0 20.0 0.02 0.35 0.35 85 1012.7
20181209213209 41 277 11.0 20.0 0.02 0.35 0.35 85 1012.8
20181209212707 41 268 10.0 20.0 0.02 0.35 0.35 84 1012.5
20181209212211 41 260 11.0 20.0 0.02 0.35 0.35 84 1012.5
20181209211707 41 276 10.0 18.0 0.02 0.35 0.35 84 1012.5
20181209211208 41 257 10.0 18.0 0.02 0.35 0.35 84 1012.5
20181209210708 41 254 10.0 18.0 0.02 0.35 0.35 84 1012.5
20181209210210 41 281 9.0 21.0 0.02 0.35 0.35 84 1012.4
20181209205707 41 259 8.0 21.0 0.02 0.35 0.35 84 1012.4
20181209205211 41 257 11.0 25.0 0.02 0.35 0.35 84 1012.2
20181209204708 41 265 12.0 25.0 0.01 0.34 0.34 85 1012.2
20181209204212 41 259 12.0 25.0 0.00 0.33 0.33 85 1012.0
20181209203707 41 265 11.0 19.0 0.00 0.33 0.33 85 1011.9
20181209203209 41 275 10.0 19.0 0.01 0.33 0.33 85 1011.7
20181209202707 41 244 11.0 19.0 0.01 0.33 0.33 85 1011.5
20181209202211 41 274 11.0 19.0 0.01 0.33 0.33 85 1011.4
20181209201710 41 264 11.0 20.0 0.01 0.33 0.33 85 1011.2
20181209201209 41 245 11.0 20.0 0.01 0.33 0.33 85 1011.1
20181209200708 41 273 11.0 23.0 0.01 0.33 0.33 85 1011.0
20181209200211 41 256 12.0 23.0 0.01 0.33 0.33 85 1010.8
20181209195707 41 265 11.0 21.0 0.01 0.33 0.33 85 1010.9
20181209195209 41 234 11.0 21.0 0.01 0.33 0.33 85 1010.7
20181209194708 41 272 12.0 21.0 0.01 0.33 0.33 85 1010.7
20181209194211 41 267 10.0 20.0 0.01 0.33 0.33 85 1010.6
20181209193708 41 267 11.0 20.0 0.01 0.33 0.33 85 1010.6
20181209193211 41 295 11.0 25.0 0.01 0.32 0.32 85 1010.4
20181209192707 41 252 11.0 25.0 0.01 0.32 0.32 85 1010.2
20181209192211 41 281 11.0 25.0 0.01 0.32 0.32 85 1010.2
20181209191709 41 269 12.0 24.0 0.01 0.32 0.32 85 1010.1
20181209191209 41 234 12.0 24.0 0.01 0.32 0.32 84 1010.1
20181209190708 41 284 12.0 21.0 0.01 0.32 0.32 84 1009.9
20181209190211 41 251 12.0 23.0 0.01 0.32 0.32 84 1009.9
20181209185707 41 250 13.0 23.0 0.01 0.32 0.32 84 1009.8
20181209185210 41 263 12.0 23.0 0.01 0.32 0.32 84 1009.8
20181209184707 41 258 12.0 22.0 0.01 0.32 0.32 84 1009.6
20181209184210 41 264 11.0 22.0 0.01 0.32 0.32 84 1009.4
20181209183708 41 213 11.0 21.0 0.01 0.32 0.32 84 1009.2
20181209183210 41 259 11.0 21.0 0.00 0.31 0.31 84 1009.2
20181209182707 41 281 11.0 22.0 0.00 0.31 0.31 84 1009.1
20181209182211 41 259 11.0 26.0 0.00 0.31 0.31 85 1009.1
20181209181707 41 261 13.0 26.0 0.01 0.31 0.31 85 1008.8
20181209181210 41 257 13.0 26.0 0.01 0.31 0.31 85 1008.8
20181209180710 41 285 13.0 25.0 0.02 0.31 0.31 85 1008.7
20181209180212 41 266 13.0 28.0 0.02 0.31 0.31 85 1008.5
20181209175711 41 271 12.0 28.0 0.02 0.31 0.31 85 1008.1
20181209175213 41 244 13.0 28.0 0.02 0.31 0.31 85 1008.2
20181209174715 41 309 13.0 28.0 0.02 0.31 0.31 85 1008.2
20181209174213 41 240 13.0 22.0 0.02 0.31 0.31 85 1007.9
20181209173715 41 259 12.0 22.0 0.02 0.31 0.31 85 1007.9
20181209173213 41 279 11.0 24.0 0.02 0.31 0.31 85 1007.8
20181209172714 41 280 12.0 24.0 0.02 0.31 0.31 85 1007.8
20181209172215 41 277 13.0 25.0 0.02 0.31 0.31 85 1007.6
20181209171714 41 275 13.0 25.0 0.02 0.31 0.31 85 1007.5
20181209171212 41 258 13.0 26.0 0.02 0.30 0.31 85 1007.5
20181209170712 40 248 11.0 26.0 0.02 0.30 0.30 85 1007.4
20181209170213 40 259 11.0 26.0 0.02 0.30 0.30 85 1007.5
20181209165710 40 233 11.0 21.0 0.01 0.30 0.30 85 1007.4
20181209165211 40 259 11.0 18.0 0.01 0.29 0.29 85 1007.4
20181209164710 40 256 10.0 18.0 0.01 0.29 0.29 84 1007.3
20181209164213 40 250 9.0 18.0 0.01 0.29 0.29 84 1007.4
20181209163713 40 235 8.0 18.0 0.01 0.29 0.29 84 1007.2
20181209163212 40 239 8.0 19.0 0.01 0.29 0.29 84 1007.2
20181209162710 40 241 8.0 19.0 0.01 0.29 0.29 84 1007.2
20181209162212 40 236 8.0 19.0 0.01 0.29 0.29 84 1007.1
20181209161711 40 219 9.0 19.0 0.00 0.28 0.29 85 1007.0
20181209161211 40 223 10.0 22.0 0.01 0.28 0.28 85 1006.9
20181209160710 40 277 11.0 22.0 0.01 0.28 0.28 85 1007.0
20181209160212 40 234 11.0 22.0 0.02 0.28 0.28 85 1006.9
20181209155710 40 244 12.0 22.0 0.02 0.28 0.28 85 1006.9
20181209155212 40 208 12.0 27.0 0.03 0.28 0.28 85 1006.8
20181209154710 40 242 11.0 27.0 0.03 0.28 0.28 85 1006.7
20181209154212 40 231 12.0 25.0 0.04 0.28 0.28 85 1006.7
20181209153711 41 209 13.0 25.0 0.04 0.28 0.28 85 1006.6
20181209153212 41 253 12.0 24.0 0.05 0.28 0.28 85 1006.5
20181209152709 41 229 12.0 24.0 0.05 0.28 0.28 85 1006.4
20181209152212 41 238 12.0 23.0 0.05 0.28 0.28 85 1006.4
20181209151710 40 280 10.0 22.0 0.05 0.28 0.28 85 1006.3
20181209151212 40 242 9.0 25.0 0.04 0.28 0.28 85 1006.5
20181209150711 40 236 11.0 25.0 0.04 0.28 0.28 85 1006.4
20181209150213 40 280 12.0 24.0 0.03 0.27 0.28 85 1006.5
20181209145709 40 242 11.0 24.0 0.03 0.27 0.27 85 1006.5
20181209145211 41 235 10.0 24.0 0.02 0.25 0.26 85 1006.6
20181209144711 41 222 9.0 24.0 0.02 0.25 0.25 85 1006.5
20181209144214 41 256 12.0 25.0 0.01 0.24 0.25 85 1006.4
20181209143710 41 248 12.0 25.0 0.01 0.24 0.24 85 1006.4
20181209143212 41 262 12.0 25.0 0.00 0.24 0.24 85 1006.4
20181209142709 41 243 12.0 25.0 0.00 0.24 0.24 85 1006.3
20181209142212 41 241 12.0 25.0 0.00 0.24 0.24 85 1006.2
20181209141711 42 242 13.0 27.0 0.00 0.24 0.24 85 1006.1
20181209141211 42 246 14.0 29.0 0.00 0.24 0.24 85 1006.1
20181209140711 42 259 14.0 29.0 0.00 0.24 0.24 85 1006.2
20181209140212 42 279 15.0 29.0 0.00 0.24 0.24 85 1006.0
20181209135710 42 252 15.0 26.0 0.00 0.24 0.24 84 1006.1
20181209135211 42 254 15.0 26.0 0.00 0.24 0.24 85 1006.2
20181209134711 42 260 14.0 26.0 0.00 0.24 0.24 85 1006.2
20181209134212 42 251 13.0 24.0 0.00 0.24 0.24 85 1006.1
20181209133710 42 284 13.0 24.0 0.00 0.24 0.24 85 1006.0
20181209133211 42 262 13.0 27.0 0.00 0.24 0.24 85 1006.0
20181209132711 42 254 13.0 27.0 0.00 0.24 0.24 85 1006.1
20181209132213 42 240 14.0 27.0 0.01 0.24 0.24 85 1005.9
20181209131710 42 260 16.0 29.0 0.01 0.24 0.24 84 1006.0
20181209131211 42 232 16.0 29.0 0.01 0.24 0.24 84 1005.8
20181209130711 42 226 15.0 29.0 0.01 0.24 0.24 83 1005.7
20181209130212 42 241 14.0 24.0 0.01 0.24 0.24 83 1005.7
20181209125710 42 232 12.0 29.0 0.01 0.24 0.24 83 1005.7
20181209125212 42 260 12.0 33.0 0.01 0.24 0.24 83 1005.5
20181209124711 42 259 13.0 33.0 0.01 0.24 0.24 83 1005.5
20181209124213 42 249 14.0 26.0 0.01 0.24 0.24 83 1005.6
20181209123711 42 248 14.0 26.0 0.01 0.24 0.24 83 1005.5
20181209123212 42 241 13.0 24.0 0.01 0.24 0.24 83 1005.5
20181209122710 42 218 12.0 24.0 0.01 0.24 0.23 84 1005.4
20181209122213 42 293 13.0 24.0 0.00 0.23 0.23 84 1005.5
20181209121711 42 259 13.0 25.0 0.00 0.23 0.23 84 1005.5
20181209121211 42 251 13.0 26.0 0.00 0.23 0.23 83 1005.6
20181209120710 42 228 14.0 26.0 0.00 0.23 0.23 83 1005.6
20181209120212 43 235 15.0 26.0 0.00 0.23 0.23 82 1005.5
20181209115710 43 257 15.0 26.0 0.00 0.23 0.23 81 1005.6
20181209115213 43 205 15.0 29.0 0.00 0.23 0.23 81 1005.5
20181209114714 43 241 15.0 29.0 0.00 0.23 0.23 80 1005.7
20181209114214 43 247 15.0 28.0 0.00 0.23 0.23 81 1005.8
20181209113713 43 252 15.0 28.0 0.00 0.23 0.23 81 1005.8
20181209113213 44 265 14.0 23.0 0.00 0.23 0.23 81 1005.8
20181209112713 44 236 14.0 23.0 0.00 0.23 0.23 81 1005.9
20181209112213 43 256 13.0 26.0 0.00 0.23 0.23 83 1006.2
20181209111712 43 234 13.0 26.0 0.00 0.23 0.23 83 1006.1
20181209111212 43 242 13.0 24.0 0.00 0.23 0.23 83 1006.3
20181209110712 42 245 13.0 24.0 0.00 0.23 0.23 83 1006.4
20181209110213 42 232 12.0 24.0 0.00 0.23 0.23 83 1006.4
20181209105710 42 230 12.0 24.0 0.00 0.23 0.23 83 1006.5
20181209105212 42 269 12.0 24.0 0.00 0.23 0.23 83 1006.5
20181209104711 42 219 12.0 24.0 0.00 0.23 0.23 84 1006.5
20181209104212 42 222 11.0 26.0 0.00 0.23 0.23 84 1006.6
20181209103711 42 261 11.0 26.0 0.00 0.23 0.23 84 1006.7
20181209103211 42 217 11.0 26.0 0.00 0.23 0.23 84 1007.0
20181209102709 42 225 12.0 26.0 0.00 0.23 0.23 84 1006.7
20181209102212 42 261 12.0 26.0 0.00 0.23 0.23 84 1006.8
20181209101711 42 262 11.0 26.0 0.00 0.23 0.23 84 1006.7
20181209101211 42 222 11.0 38.0 0.00 0.23 0.23 84 1006.8
20181209100711 41 259 11.0 38.0 0.00 0.23 0.23 84 1006.9
20181209100212 42 257 13.0 38.0 0.00 0.23 0.23 84 1006.9
20181209095710 42 240 16.0 38.0 0.00 0.23 0.23 83 1006.9
20181209095211 42 263 19.0 34.0 0.00 0.23 0.23 81 1007.1
20181209094710 43 242 18.0 34.0 0.00 0.23 0.23 79 1007.0
20181209094214 43 252 16.0 34.0 0.00 0.23 0.23 79 1007.0
20181209093710 43 273 17.0 34.0 0.00 0.23 0.23 80 1006.9
20181209093212 42 263 16.0 31.0 0.00 0.23 0.23 81 1007.0
20181209092709 42 219 17.0 31.0 0.00 0.23 0.23 81 1006.9
20181209092212 42 266 18.0 30.0 0.00 0.23 0.23 81 1007.3
20181209091710 42 276 16.0 30.0 0.00 0.23 0.23 82 1007.0
20181209091212 42 288 16.0 30.0 0.00 0.23 0.23 83 1006.8
20181209090711 42 252 16.0 30.0 0.00 0.23 0.23 83 1006.6
20181209090212 42 271 16.0 30.0 0.00 0.23 0.23 83 1006.5
20181209085711 42 269 16.0 27.0 0.00 0.23 0.23 83 1006.4
20181209085210 42 254 17.0 27.0 0.00 0.23 0.23 83 1006.4
20181209084710 42 221 15.0 27.0 0.00 0.23 0.23 84 1006.1
20181209084212 42 273 14.0 25.0 0.00 0.23 0.23 84 1005.9
20181209083709 41 255 13.0 25.0 0.00 0.23 0.23 84 1005.7
20181209083211 41 307 13.0 24.0 0.00 0.23 0.23 84 1005.7
20181209082709 41 299 13.0 24.0 0.00 0.23 0.23 85 1005.6
20181209082213 41 259 14.0 24.0 0.00 0.23 0.23 84 1005.5